Miscellaneous Local Product
Issued by NWS Hastings, NE

Home | Current Version | Previous Version | Graphics & Text | Print | Product List | Glossary On
Versions: 1 2 3 4 5 6 7 8 9 10 11 12 13 14 15 16 17 18 19 20 21 22 23 24 25 26 27 28 29 30 31 32 33 34 35 36 37 38 39 40 41 42 43 44 45 46 47 48 49 50
407
AXUS43 KGID 231002
MISGRI

GID CWA HOURLY WEATHER ROUNDUP
NATIONAL WEATHER SERVICE HASTINGS NE
400 AM CST THU FEB 23 2017

NOTE: "FAIR" INDICATES FEW OR NO CLOUDS BELOW 12,000 FEET WITH NO
SIGNIFICANT WEATHER AND/OR OBSTRUCTIONS TO VISIBILITY.

...SOUTH CENTRAL NEBRASKA...

CITY           SKY/WX    TMP DP  RH WIND       PRES   REMARKS
GRAND ISLAND   CLOUDY    38  35  89 NE21G26   29.79F WCI  28
HASTINGS       CLOUDY    40  35  83 NE17G28   29.77S WCI  31
KEARNEY        CLOUDY    39  34  81 NE21G26   29.77F WCI  29
ORD            CLOUDY    36  30  79 N15       29.79F WCI  27
YORK           CLOUDY    37  37 100 NE17G24   29.78F WCI  28
AURORA         CLOUDY    38  37  92 NE20      29.77F WCI  29
LEXINGTON      CLOUDY    38  36  90 NE17      29.76S WCI  29
HOLDREGE       CLOUDY    39  36  89 NE25G33   29.74F WCI  27
HEBRON         CLOUDY    43  37  78 NE10      29.74S

...NEBRASKA PANHANDLE...

CITY           SKY/WX    TMP DP  RH WIND       PRES   REMARKS
CHADRON        LGT SNOW  30  28  92 NE16      29.81F FOG     WCI  19
ALLIANCE       LGT SNOW  30  27  88 NE16      29.74F FOG     WCI  19
SCOTTSBLUFF    CLOUDY    32  28  85 NE17      29.74F WCI  21
SIDNEY         CLOUDY    33  29  85 NE21G28   29.69F WCI  21

...WESTERN AND NORTH CENTRAL NEBRASKA...

CITY           SKY/WX    TMP DP  RH WIND       PRES   REMARKS
VALENTINE      LGT SNOW  29  26  89 NE20G29   29.84F FOG     WCI  16
AINSWORTH      CLOUDY    29  29 100 N15       29.83S FOG     WCI  18
ONEILL         CLOUDY    31  31  99 N15       29.85R WCI  20
BROKEN BOW     CLOUDY    36  35  96 NE17G26   29.78R FOG     WCI  26
IMPERIAL       CLOUDY    35  30  82 NE20      29.71F WCI  24
NORTH PLATTE   CLOUDY    36  32  85 NE15G24   29.76S WCI  27
MCCOOK         CLOUDY    39  35  86 NE18      29.70F WCI  30

...EASTERN NEBRASKA...

CITY           SKY/WX    TMP DP  RH WIND       PRES   REMARKS
NORFOLK        CLOUDY    34  31  88 N15       29.83S WCI  24
SO SIOUX CITY  CLOUDY    38  32  79 NE18G25   29.85S WCI  28
TEKAMAH        CLOUDY    38  34  85 N14       29.82F WCI  30
COLUMBUS       CLOUDY    37  34  87 NE16      29.82R WCI  28
ALBION         CLOUDY    35  32  88 N12       29.82S WCI  27
OMAHA EPPLEY   CLOUDY    41  35  79 N21       29.79S
OFFUTT AFB     CLOUDY    42  35  78 N13       29.78R
MILLARD        CLOUDY    44  38  82 N7        29.79R
LINCOLN        PTCLDY    41  37  86 N12       29.78F
NEBRASKA CITY  CLOUDY    42  36  77 NE15      29.75R
BEATRICE       MOCLDY    44  38  80 NE8       29.75R
FALLS CITY     MOCLDY    45  38  76 NE6       29.72S

...NORTHERN KANSAS...

CITY           SKY/WX    TMP DP  RH WIND       PRES   REMARKS
GOODLAND       CLOUDY    36  27  69 E14       29.62F WCI  27
HILL CITY      CLOUDY    44  33  65 NE14      29.67F
NORTON         MOSUNNY   39  30  70 NE16      29.69  WCI  30
PHILLIPSBURG   CLEAR     45  36  70 NE15      29.70S
SMITH CENTER   CLEAR     41  36  81 NE20G25   29.69F
HAYS             N/A     46  33  60 E22       29.61F
RUSSELL        CLOUDY    48  35  60 E16       29.64S
CONCORDIA      CLOUDY    46  38  73 NE14      29.70S
SALINA         CLOUDY    54  37  52 E13G20    29.66S
TOPEKA         CLOUDY    52  39  61 NE12G18   29.68R



USA.gov is the U.S. government's official web portal to all federal, state and local government web resources and services.